Regional Weather Roundup
Issued by NWS

Home | Current Version | Previous Version | Text Only | Print | Product List | Glossary Off
Versions: 1 2 3 4 5 6 7 8 9 10 11 12 13 14 15 16 17 18 19 20 21 22 23 24 25 26 27 28 29 30 31 32 33 34 35 36 37 38 39 40 41 42 43 44 45 46 47 48 49 50

000
ASUS43 KFSD 240302
RWRSD

WEATHER ROUNDUP FOR SOUTH DAKOTA
NATIONAL WEATHER SERVICE SIOUX FALLS SD
1000 PM CDT WED APR 23 2014

NOTE: "FAIR" INDICATES FEW OR NO CLOUDS BELOW 12,000 FEET WITH NO
SIGNIFICANT WEATHER AND/OR OBSTRUCTIONS TO VISIBILITY.


SDZ001>005-009-010-012>017-240400-
NORTHWEST AND NORTH CENTRAL SOUTH DAKOTA

CITY           SKY/WX    TMP DP  RH WIND       PRES   REMARKS
BUFFALO          N/A     46  28  49 W12       29.67R
FAITH            N/A     47  34  60 NW12      29.73R
MOBRIDGE       CLOUDY    46  38  73 NE10      29.68R
$$

SDZ012>016-024>037-041>051-057-063-072>074-240400-
SOUTHWEST AND SOUTH CENTRAL SOUTH DAKOTA

CITY           SKY/WX    TMP DP  RH WIND       PRES   REMARKS
RAPID CTY ARPT MOCLDY    46  32  58 N13       29.77R
PIERRE         CLOUDY    53  37  54 NW15      29.69R
CUSTER         MOCLDY    42  23  46 NW7       29.82R
ELLSWORTH AFB  MOCLDY    47  34  58 N10       29.78R
PHILIP         CLOUDY    51  35  54 N8        29.73R
PINE RIDGE     CLOUDY    50  37  61 N5        29.76R
WINNER         CLOUDY    58  39  49 NW18      29.70R
$$

SDZ004>011-016>023-039-040-240400-
NORTHEAST SOUTH DAKOTA

CITY           SKY/WX    TMP DP  RH WIND       PRES   REMARKS
ABERDEEN       MOCLDY    46  40  79 E9        29.68R
WATERTOWN      MOCLDY    45  38  76 SE15G22   29.71R
SISSETON         N/A     41  38  89 SE18G26   29.74F
$$

SDZ017-020-022-023-036>040-048>070-240400-
SOUTHEAST SOUTH DAKOTA

CITY           SKY/WX    TMP DP  RH WIND       PRES   REMARKS
SIOUX FALLS    CLOUDY    48  39  71 SE21G28   29.71R
HURON          MOCLDY    56  41  57 SE21G28   29.64R
CHAMBERLAIN      N/A     59  42  53 N20G29    29.64R
MITCHELL       PTCLDY    57  43  59 SE26G32   29.62R
YANKTON        CLOUDY    54  45  71 E13       29.64R
$$

ABBREVIATIONS USED IN REMARKS
   TC - TEMPERATURE IN CELSIUS
  WCI - WIND CHILL INDEX
   HX - HEAT INDEX
  VSB - VISIBILITY




USA.gov is the U.S. government's official web portal to all federal, state and local government web resources and services.